Location: *
(50.5492°N, 7.7469°E)
Time: 04:38:38
(UTC+00:00)

Cosmos 1844 - Pass Details

Date: 21 October 2019
Orbit: 821 x 869 km, 70.9° (Epoch: 18 November)

Event Time Altitude Azimuth Distance (km) Brightness Sun altitude
Rises 17:01:59 0° 211° (SSW) 3,406 7.5 -6.5°
Reaches altitude 10° 17:04:25 10° 212° (SSW) 2,481 6.8 -6.8°
Maximum altitude 17:10:09 81° 301° (WNW) 879 3.9 -7.7°
Drops below altitude 10° 17:15:58 10° 28° (NNE) 2,521 5.8 -8.7°
Sets 17:18:27 0° 30° (NNE) 3,465 6.5 -9.1°
